User: anonymous   Login
Location: Unspecified
(0.0000°N, 0.0000°E)
Time: 21:16:13
(UTC+02:00)
Language:

NOAA 12 - Orbit

View from above orbital plane
View from above orbital plane
View from above satellite
View from above satellite

Ground track
Ground track

The orbit data is extracted from the following two-line orbital elements,

1 21263U 91032A   17177.91135560 -.00000032 +00000-0 +44748-5 0  9990
2 21263 098.5628 201.7246 0012609 252.1170 107.8635 14.25843241357854
Epoch (UTC): 26 June 2017 21:52:21
Eccentricity: 0.0012609
inclination: 98.5628°
perigee height: 796 km
apogee height: 815 km
right ascension of ascending node: 201.7246°
argument of perigee: 252.1170°
revolutions per day: 14.25843241
mean anomaly at epoch: 107.8635°
orbit number at epoch: 35785

The dashed part of the orbit path shows where the satellite is in the earth's shadow,  

DLR